Weather in Stal'noy Kon'

Russia / Oryol Oblast     53°02′17″N   36°07′38″E
temp.,
°C
wind,
m/s
gust,
m/s
humid.,
%
clouds,
%
prec.,
mm/h
press.,
hPa
HPBL,
m
21 january, fri
fri2100:00−4s71495100 0.4 1005617
03:00−4s71396100 1.7 1003533
06:00−4s61296100 1.4 1001511
09:00−4s51096100 2.7 1000406
12:00−3ssw6995100 0.8 999591
15:00−4ssw6119196 0.9 999571
18:00−5s6149295 0.1 999562
21:00−5ssw81495100 0.3 998723
22 january, sat
sat2200:00−4ssw71495100 0.5 999544
03:00−3ssw61294100 1.1 1000548
06:00−4ssw5119598 0.4 1001442
09:00−5ssw5109483 0.7 1003357
12:00−5s489588 0.1 1006374
15:00−4ssw4795100 0.2 1007466
18:00−8sse369768 0.1 101085
21:00−8sse259794 0.2 101278
23 january, sun
sun2300:00−11sse229979 0.1 101428
03:00−15se22100100 0.1 101714
06:00−16se22100100 0.1 102016
09:00−16ese2210099 0.1 102318
12:00−9ene239572 0.1 1025111
15:00−9ne24955 0.1 102782
18:00−14ne359867 0.0 103044
21:00−15ne379866 0.0 103280
24 january, mon
mon2400:00−15nne489772 0.0 1033103
03:00−14ne4119653 0.0 1033169
06:00−14nne5139668 0.0 1033206
09:00−12nne6149594 0.1 1033283
12:00−8ne51293100 0.1 1033336
15:00−7ne5993100 0.1 1031346
18:00−11ne3796100 0.0 103296
21:00−15e359854 0.0 103355
25 january, tue
tue2500:00−16ene229958 0.0 103217
03:00−19ene2210076 0.0 103112
06:00−20ene22100100 0.0 103010
09:00−19ese22100100 0.0 102925
12:00−11sse1193100 0.0 1027100
15:00−10s12945 0.0 102493
18:00−16sse229967 0.0 102410
21:00−18s22100100 0.0 102318